Regional Weather Roundup
Issued by NWS

Home | Current Version | Previous Version | Graphics & Text | Print | Product List | Glossary On
Versions: 1 2 3 4 5 6 7 8 9 10 11 12 13 14 15 16 17 18 19 20 21 22 23 24 25 26 27 28
000
ASUS45 KCYS 261510
RWRWY

WYOMING REGIONAL WEATHER ROUNDUP
NATIONAL WEATHER SERVICE CHEYENNE WY
900 AM MDT MON JUN 26 2017

NOTE:  "FAIR" INDICATES FEW OR NO CLOUDS BELOW 12,000 FEET
WITH NO SIGNIFICANT WEATHER AND/OR OBSTRUCTIONS TO VISIBILITY.

WYZ001-261600-
YELLOWSTONE NATIONAL PARK

CITY           SKY/WX    TMP DP  RH WIND       PRES   REMARKS
LK YELLOWSTONE   N/A     52  41  66 CALM      30.40F
W YELLOWSTONE  NOT AVBL

$$
WYZ002>013-054>058-071-098>099-261600-
NORTHERN WYOMING

CITY           SKY/WX    TMP DP  RH WIND       PRES   REMARKS
JACKSON        SUNNY     55  41  58 CALM      30.34F
CODY           FAIR      70  37  29 S12       30.21F
GREYBULL       FAIR      68  38  33 VRB3      30.17F
WORLAND        FAIR      74  37  26 E6        30.17F
SHERIDAN       FAIR      63  45  51 CALM      30.17F
BUFFALO        FAIR      66  43  43 SE5       30.22F
GILLETTE       FAIR      67  38  34 S18G28    30.21F
NEWCASTLE      FAIR      61  32  33 S9G20     30.28S

$$
WYZ014>020-022>026-101>103-261600-
CENTRAL WYOMING

CITY           SKY/WX    TMP DP  RH WIND       PRES   REMARKS
BIG PINEY      FAIR      61  40  45 E6        30.37F
PINEDALE       FAIR      61  36  39 CALM      30.38S
DUBOIS         FAIR      59  36  41 NW12      30.34F
LANDER         FAIR      63  41  44 SE3       30.26F
RIVERTON       FAIR      65  37  35 NW5       30.27F
CASPER         FAIR      63  38  39 SE5       30.27F
DOUGLAS        FAIR      66  40  38 SE5       30.27F

$$
WYZ021-027>030-104>119-261600-
SOUTHERN WYOMING

CITY           SKY/WX    TMP DP  RH WIND       PRES   REMARKS
EVANSTON       FAIR      63  39  41 N7        30.33F
KEMMERER         N/A     64  32  29 N10       30.36S
FORT BRIDGER   FAIR      60  35  38 N3        30.37S
ROCK SPRINGS   FAIR      63  32  31 E7        30.33F
DIXON          FAIR      66  32  28 CALM      30.35F
RAWLINS        FAIR      63  33  32 E6        30.35F
SARATOGA       FAIR      64  32  29 SE6       30.37F
LARAMIE        FAIR      62  39  42 CALM      30.38S
CHEYENNE       FAIR      66  43  43 NE7       30.32F
TORRINGTON     FAIR      63  40  42 VRB3      30.25S
PINE BLUFFS    FAIR      64  48  55 NW6       30.29S

$$




USA.gov is the U.S. government's official web portal to all federal, state and local government web resources and services.